Location: Brachstadt
(48.6975°N, 10.6755°E)
Time: 12:34:46
(UTC+00:00)

Envisat - Pass Details

Date: 30 November 2022
Orbit: 763 x 765 km, 98.2° (Epoch: 06 February)

Event Time Altitude Azimuth Distance (km) Brightness Sun altitude
Rises 04:30:46 0° 7° (N) 3,246 6.2 -21.7°
Reaches altitude 10° 04:33:13 10° 360° (N) 2,316 5.4 -21.3°
Enters shadow 04:36:23 30° 329° (NNW) 1,346 3.9 -20.8°
